Location: Lavington
(51.2833°N, 1.9833°W)
Time: 20:53:49
(UTC+00:00)

Cosmos 2297 Rocket - Pass Details

Date: 01 June 2020
Orbit: 840 x 842 km, 71.0° (Epoch: 11 July)

Event Time Altitude Azimuth Distance (km) Brightness Sun altitude
Rises 22:52:50 0° 331° (NNW) 3,408 7.1 -14.8°
Reaches altitude 10° 22:55:41 10° 343° (NNW) 2,470 6.1 -14.9°
Maximum altitude 23:00:27 27° 41° (NE) 1,572 4.0 -15.1°
Drops below altitude 10° 23:05:12 10° 98° (E) 2,461 4.4 -15.3°
Enters shadow 23:07:21 - 108° (ESE) 3,165 4.9 -15.4°
